Temp
64 64 64 63 63 63 63 63 61 61 62 63 63 62 62 61 61 60 60 60 60 60 60 60 60 60 54 43 45 62 66 65 67 63 57 55 50 50 46 50 55 51 56 60 60 58 56
63 63 63 63 63 63 63 62 61 61 61 62 62 62 61 61 60 59 60 60 60 60 59 59 60 59 48 37 59 62 60 63 63 60 56 56 52 54 50 52 52 55 57 57 57 58 59
63 63 63 62 63 62 62 61 61 60 61 61 62 61 60 60 60 59 60 60 60 59 59 59 59 56 46 44 60 60 59 61 64 62 55 58 58 53 53 50 56 56 50 53 56 56 57
62 62 62 63 62 62 62 61 61 60 60 61 61 60 60 60 59 59 59 59 59 59 59 59 59 51 41 59 58 58 58 59 60 62 59 60 61 53 51 54 52 50 49 41 53 55 58
62 62 62 62 62 61 61 61 60 60 60 60 60 59 59 59 59 59 59 59 59 59 59 59 51 46 39 60 55 58 59 55 56 57 57 61 57 52 50 44 41 45 37 40 48 55 55
61 61 61 61 61 61 61 60 60 60 60 60 59 58 58 59 58 58 59 59 59 56 56 57 55 42 49 46 54 55 56 56 50 52 50 51 49 44 42 41 34 37 39 44 45 51 52
61 61 61 61 61 61 61 61 59 59 59 59 59 57 58 58 58 59 54 48 42 41 46 41 44 44 47 53 55 51 53 52 49 49 43 49 41 37 41 42 45 45 43 42 46 53 51
60 60 60 60 60 60 60 60 60 60 59 58 58 57 57 58 58 58 51 43 44 46 37 49 49 48 51 50 45 47 53 44 46 42 47 42 39 43 48 47 45 45 41 41 46 53 50
60 60 60 60 60 60 59 59 59 59 59 58 57 57 57 57 57 51 46 47 52 51 37 44 48 45 44 48 43 43 49 47 44 42 42 40 43 49 48 43 42 40 40 40 42 46 47
59 59 59 59 60 59 59 59 59 59 58 57 57 57 57 57 50 48 44 52 53 52 27 37 42 44 47 46 42 50 49 48 43 41 46 43 48 46 44 42 44 35 47 47 44 41 35
59 59 58 58 59 59 58 58 58 58 57 57 56 57 56 56 45 44 50 52 51 47 22 40 40 51 48 43 43 45 52 50 41 43 44 38 41 42 41 44 47 42 47 45 43 39 37
58 58 58 58 58 58 58 58 58 57 57 56 56 56 56 51 47 50 52 50 45 26 23 33 39 39 41 42 43 46 45 51 52 45 43 41 45 43 41 45 48 48 43 40 39 37 27
58 57 57 58 58 58 57 57 57 57 57 56 56 56 53 54 45 52 51 42 25 23 37 35 38 42 41 40 41 40 43 41 38 33 33 37 38 42 44 42 46 45 37 26 26 26 24
57 57 57 57 57 58 57 57 57 57 56 55 55 55 52 54 51 50 45 33 22 33 31 42 43 42 37 41 40 42 41 37 42 39 33 31 29 40 43 40 38 40 36 25 21 21 26
57 57 57 57 57 57 57 57 57 56 56 55 54 46 46 49 52 48 37 23 26 28 35 38 42 37 37 40 40 41 40 37 40 39 33 33 31 41 43 45 43 39 34 38 28 26 21
56 56 57 57 57 56 56 56 56 56 55 55 42 43 45 52 50 43 33 32 32 41 43 43 35 40 35 36 38 37 39 42 41 43 42 36 30 40 42 44 44 41 43 31 26 19 21
56 56 56 56 56 56 56 56 56 56 55 54 43 40 47 51 48 38 27 29 39 47 46 41 39 41 43 39 39 40 38 46 46 43 43 39 34 35 40 38 37 38 37 34 34 27 22
56 56 56 56 55 55 55 55 55 56 55 47 38 34 47 48 40 33 28 38 47 45 47 44 43 42 41 41 38 37 37 40 48 47 40 43 35 31 35 43 45 41 39 40 30 24 23
55 55 55 55 55 55 54 55 55 55 55 41 35 36 46 45 32 30 40 43 45 44 44 44 42 44 43 40 36 39 39 45 47 45 42 44 31 22 30 35 42 37 38 40 36 32 21
55 55 55 55 55 54 54 54 54 55 55 43 36 29 35 40 38 38 36 40 40 45 45 46 44 45 41 39 42 37 38 44 46 46 50 47 35 31 26 30 33 29 36 38 35 27 32
55 55 55 55 55 54 54 54 54 54 54 43 34 34 38 28 34 35 36 42 44 40 44 45 42 42 40 35 37 36 38 39 44 47 42 41 27 26 34 37 35 35 36 37 32 37 32
55 54 54 54 54 54 54 53 54 54 52 37 32 30 34 31 35 34 38 37 40 42 45 40 39 43 41 39 40 37 39 37 38 39 38 38 25 28 30 35 34 30 36 37 38 38 37
55 54 54 54 54 54 53 53 53 53 47 35 34 36 34 34 33 38 38 40 41 41 47 45 43 40 40 42 43 42 44 44 42 40 37 35 28 23 21 31 31 27 33 35 36 38 40
55 54 54 54 53 53 53 53 53 53 47 37 35 34 29 29 30 34 37 40 40 41 38 43 44 41 44 48 46 44 43 43 42 39 41 33 31 27 19 26 16 34 40 40 39 41 40
55 54 54 53 53 53 53 53 53 53 51 39 37 34 29 26 29 33 34 35 38 41 39 41 43 44 44 43 37 34 33 36 38 41 40 40 34 27 22 19 29 35 38 37 35 37 43
55 54 54 53 53 52 52 52 52 52 52 40 38 37 33 27 28 35 32 33 33 34 38 41 45 45 44 39 36 28 26 30 29 34 38 43 42 31 28 20 20 35 42 44 42 31 43
55 54 54 53 53 52 52 52 53 52 52 42 39 40 34 28 32 34 30 29 34 36 34 38 40 39 41 35 31 26 28 35 28 28 30 33 35 28 29 28 30 41 43 44 30 34 43
55 54 54 53 53 52 52 52 52 52 52 43 38 42 36 32 32 37 38 34 34 33 30 37 38 39 36 32 32 30 28 32 30 32 32 31 31 28 33 26 22 43 41 37 42 43 43
54 54 54 53 52 52 52 52 52 52 52 46 36 46 47 37 36 39 41 42 41 40 35 34 34 34 37 36 32 32 31 30 30 27 33 30 34 30 32 32 42 44 44 45 46 47 47
MSLP
1023.10 1022.93 1022.59 1022.20 1021.70 1021.31 1020.79 1020.28 1019.94 1019.39 1018.83 1018.23 1017.54 1017.08 1016.59 1015.90 1015.04 1014.73 1014.73 1014.64 1014.55 1014.49 1014.57 1014.77 1014.95 1015.08 1015.38 1015.35 1013.97 1012.84 1012.92 1012.94 1012.30 1013.47 1013.85 1014.37 1014.98 1015.15 1015.04 1014.91 1014.97 1015.17 1014.83 1015.20 1015.40 1016.70 1017.14
1023.11 1022.81 1022.52 1022.06 1021.71 1021.20 1020.76 1020.35 1019.93 1019.30 1018.78 1018.13 1017.50 1016.94 1016.60 1015.78 1015.14 1014.92 1014.97 1014.91 1014.86 1014.79 1014.70 1014.79 1014.82 1015.06 1015.39 1014.98 1013.30 1012.98 1013.03 1012.52 1012.16 1012.85 1013.25 1014.18 1014.44 1014.47 1014.80 1014.63 1014.78 1014.81 1015.16 1015.30 1016.03 1016.79 1017.06
1023.03 1022.62 1022.43 1022.05 1021.66 1021.20 1020.77 1020.34 1019.83 1019.19 1018.55 1017.81 1017.29 1016.97 1016.50 1016.06 1015.62 1015.30 1015.09 1015.03 1015.01 1014.97 1014.84 1014.79 1014.82 1015.06 1015.01 1013.94 1013.06 1013.02 1013.64 1012.63 1012.19 1012.64 1013.08 1013.99 1014.18 1014.33 1014.30 1014.63 1014.66 1014.75 1015.32 1015.94 1016.14 1016.18 1016.30
1022.94 1022.58 1022.33 1021.92 1021.58 1021.02 1020.74 1020.28 1019.63 1019.20 1018.51 1017.94 1017.38 1017.09 1016.59 1016.28 1016.00 1015.71 1015.43 1014.94 1014.86 1014.81 1014.74 1014.71 1014.80 1015.04 1014.54 1013.25 1012.99 1013.31 1013.39 1012.84 1012.62 1013.09 1013.59 1013.89 1014.14 1014.46 1014.35 1014.33 1014.93 1015.20 1015.70 1016.10 1015.72 1015.82 1015.70
1022.84 1022.51 1022.22 1021.92 1021.51 1020.97 1020.62 1020.11 1019.67 1019.02 1018.39 1018.11 1017.49 1016.98 1016.73 1016.29 1016.02 1015.66 1015.19 1014.84 1014.44 1014.26 1014.28 1014.42 1014.90 1015.05 1014.10 1012.98 1012.98 1013.08 1013.47 1013.45 1013.58 1013.82 1014.10 1014.35 1014.52 1014.58 1014.46 1014.65 1015.38 1015.58 1015.77 1015.67 1015.58 1015.30 1015.28
1022.82 1022.42 1022.16 1021.84 1021.36 1020.94 1020.46 1020.11 1019.46 1018.89 1018.32 1017.74 1017.67 1017.10 1016.67 1016.19 1015.73 1015.41 1015.17 1014.73 1014.66 1014.68 1014.65 1014.60 1014.71 1015.36 1014.17 1013.40 1013.26 1013.37 1013.78 1013.90 1014.46 1013.84 1014.02 1014.51 1014.78 1014.72 1014.76 1014.70 1014.47 1014.90 1015.17 1015.28 1014.93 1015.01 1015.18
1022.81 1022.38 1022.06 1021.70 1021.28 1020.88 1020.30 1019.76 1019.47 1018.77 1018.32 1017.89 1017.53 1017.14 1016.53 1016.12 1015.55 1015.15 1015.00 1014.97 1015.36 1015.27 1014.80 1014.88 1014.83 1014.55 1014.18 1013.68 1013.28 1013.75 1014.13 1014.18 1014.55 1014.06 1013.18 1013.78 1014.35 1014.04 1014.42 1014.68 1014.37 1014.69 1015.12 1015.41 1015.15 1014.85 1015.19
1022.65 1022.31 1021.94 1021.52 1021.20 1020.77 1020.31 1019.75 1019.12 1018.65 1018.40 1017.95 1017.31 1016.98 1016.21 1015.97 1015.61 1015.12 1015.20 1015.56 1015.74 1015.73 1015.26 1014.49 1014.48 1014.43 1014.53 1014.27 1013.85 1014.08 1014.28 1013.93 1013.20 1012.69 1013.63 1014.58 1014.36 1014.67 1014.98 1014.94 1014.94 1015.02 1015.38 1015.48 1015.17 1014.99 1015.55
1022.42 1022.18 1021.82 1021.57 1021.10 1020.70 1020.28 1019.61 1019.04 1018.52 1017.99 1017.53 1017.01 1016.63 1016.29 1015.95 1015.53 1015.56 1015.71 1015.70 1015.44 1015.27 1015.40 1014.86 1014.55 1014.86 1015.23 1014.76 1014.23 1014.17 1013.75 1014.02 1013.31 1013.00 1013.86 1014.01 1014.35 1014.62 1015.13 1015.37 1015.54 1015.55 1015.56 1015.72 1015.65 1015.69 1015.92
1022.25 1022.00 1021.77 1021.42 1021.02 1020.61 1020.12 1019.57 1018.93 1018.37 1017.94 1017.54 1016.86 1016.30 1015.89 1015.80 1015.76 1015.68 1015.84 1015.46 1015.33 1015.58 1015.65 1015.30 1014.26 1015.19 1015.27 1015.24 1015.05 1015.02 1015.17 1014.40 1014.19 1013.67 1013.82 1014.58 1014.63 1014.98 1015.37 1015.65 1015.84 1015.83 1015.41 1015.63 1016.09 1016.52 1016.64
1022.09 1021.85 1021.70 1021.35 1021.00 1020.44 1019.94 1019.38 1018.87 1018.29 1017.77 1017.12 1016.57 1015.84 1015.73 1015.51 1015.86 1015.41 1015.38 1015.44 1015.55 1015.34 1015.73 1016.07 1015.26 1013.70 1015.14 1014.92 1015.22 1014.73 1014.19 1013.88 1013.74 1013.41 1013.82 1015.30 1015.18 1015.57 1015.77 1015.67 1015.79 1015.84 1015.47 1015.86 1016.40 1017.07 1017.46
1021.81 1021.72 1021.52 1021.28 1020.92 1020.40 1019.90 1019.27 1018.73 1017.93 1017.33 1016.58 1016.18 1015.49 1015.55 1015.51 1015.93 1015.29 1015.01 1015.31 1016.02 1016.61 1016.50 1016.28 1015.73 1014.04 1014.26 1014.54 1014.53 1014.21 1013.58 1013.51 1013.07 1013.68 1014.50 1015.72 1016.15 1016.20 1016.39 1016.08 1015.81 1015.84 1016.08 1016.83 1017.51 1018.19 1018.50
1021.66 1021.62 1021.42 1021.23 1020.85 1020.33 1019.70 1019.12 1018.42 1017.78 1017.15 1016.34 1015.62 1015.02 1015.23 1015.26 1015.29 1015.08 1015.13 1015.70 1016.23 1016.32 1016.86 1016.34 1015.23 1014.71 1013.76 1013.19 1013.87 1014.19 1013.83 1013.77 1013.94 1014.74 1015.91 1016.72 1017.21 1016.99 1016.86 1016.51 1016.19 1016.31 1016.91 1018.53 1019.13 1019.45 1018.95
1021.57 1021.47 1021.31 1021.08 1020.76 1020.20 1019.63 1019.04 1018.36 1017.75 1016.75 1015.90 1015.00 1014.68 1014.83 1015.05 1015.00 1015.15 1015.28 1015.91 1016.31 1016.60 1016.00 1015.32 1014.53 1014.46 1014.59 1014.53 1014.19 1013.78 1014.11 1014.33 1014.34 1014.53 1016.36 1017.23 1017.86 1017.55 1017.18 1016.97 1016.72 1016.97 1017.66 1018.57 1019.26 1019.79 1019.43
1021.50 1021.41 1021.26 1020.89 1020.62 1020.22 1019.63 1019.04 1018.30 1017.37 1016.34 1015.55 1014.97 1015.07 1015.01 1014.65 1015.01 1015.12 1015.52 1015.78 1016.28 1015.86 1015.00 1014.32 1013.65 1013.68 1014.08 1014.48 1014.54 1014.36 1013.98 1013.96 1014.22 1014.57 1015.61 1016.79 1017.83 1017.98 1017.76 1017.44 1017.60 1017.69 1017.99 1018.10 1019.18 1019.98 1019.81
1021.43 1021.32 1021.16 1020.70 1020.54 1020.17 1019.69 1018.96 1018.08 1017.00 1016.05 1015.35 1015.36 1015.50 1015.32 1014.84 1015.11 1015.53 1015.58 1015.89 1015.42 1014.82 1014.27 1013.42 1013.01 1012.49 1013.09 1013.91 1014.18 1014.19 1014.06 1013.73 1013.95 1014.16 1014.63 1015.94 1017.38 1017.80 1017.72 1017.80 1017.88 1017.57 1017.71 1018.34 1019.28 1019.99 1019.66
1021.31 1021.16 1021.02 1020.73 1020.60 1020.25 1019.64 1018.80 1018.00 1017.00 1016.00 1015.54 1016.01 1015.97 1015.51 1015.29 1015.47 1015.84 1015.96 1015.44 1014.49 1013.67 1013.45 1013.00 1012.57 1012.15 1012.10 1012.76 1013.26 1013.64 1013.91 1013.66 1013.61 1014.09 1014.69 1015.52 1016.60 1017.96 1017.67 1017.39 1017.10 1017.42 1017.40 1017.86 1018.42 1019.11 1019.07
1021.12 1021.04 1020.94 1020.82 1020.56 1020.17 1019.61 1018.80 1017.85 1017.05 1016.18 1015.82 1016.53 1016.35 1015.84 1015.75 1015.94 1015.88 1015.37 1014.69 1013.60 1013.14 1012.70 1012.51 1012.27 1012.00 1011.80 1011.83 1012.46 1012.87 1013.22 1013.27 1013.20 1013.49 1014.38 1014.72 1016.28 1017.34 1017.53 1017.10 1016.87 1016.93 1017.00 1017.25 1017.89 1018.79 1018.96
1020.90 1020.97 1021.00 1020.82 1020.47 1020.08 1019.56 1018.85 1017.85 1017.09 1016.47 1016.73 1016.93 1016.75 1016.06 1015.82 1016.00 1015.92 1014.83 1013.93 1013.18 1012.64 1012.53 1012.32 1012.14 1011.93 1011.74 1011.77 1012.26 1012.54 1012.87 1013.02 1012.93 1013.27 1013.78 1014.29 1015.67 1017.29 1017.96 1017.87 1017.24 1016.94 1016.94 1016.81 1017.46 1017.93 1017.94
1020.74 1020.89 1020.94 1020.73 1020.40 1020.13 1019.68 1018.85 1017.94 1017.02 1016.31 1016.36 1017.35 1017.54 1017.12 1016.64 1016.49 1016.12 1015.47 1014.12 1013.26 1012.50 1012.34 1012.26 1012.15 1012.01 1011.86 1011.87 1011.98 1012.60 1012.81 1012.93 1012.94 1013.26 1013.67 1014.14 1015.54 1016.30 1016.71 1016.30 1016.31 1016.75 1016.35 1016.57 1016.92 1017.54 1016.92
1020.59 1020.78 1020.86 1020.77 1020.45 1020.20 1019.77 1019.12 1018.13 1017.17 1016.32 1016.53 1018.15 1019.05 1018.62 1018.07 1017.15 1016.56 1015.94 1014.48 1013.39 1012.89 1012.46 1012.36 1012.38 1012.38 1012.50 1012.43 1012.37 1012.69 1013.02 1013.20 1013.31 1013.58 1014.08 1014.75 1016.09 1016.75 1016.66 1016.28 1016.16 1015.90 1015.69 1015.91 1016.09 1015.74 1016.11
1020.34 1020.50 1020.66 1020.76 1020.59 1020.34 1019.96 1019.35 1018.40 1017.40 1016.69 1017.58 1019.29 1019.97 1019.56 1018.79 1017.91 1017.15 1016.03 1015.32 1014.14 1013.59 1012.93 1012.77 1012.90 1012.76 1012.62 1012.64 1012.47 1012.59 1012.89 1013.28 1013.43 1014.04 1014.61 1015.49 1016.64 1017.21 1017.17 1016.62 1016.36 1016.14 1015.62 1015.40 1015.12 1015.22 1015.07
1020.11 1020.42 1020.57 1020.75 1020.58 1020.37 1020.27 1019.85 1019.09 1018.13 1017.11 1018.84 1019.86 1019.90 1019.79 1019.36 1018.74 1017.74 1017.09 1016.38 1015.49 1014.72 1013.68 1013.37 1013.23 1013.21 1013.04 1012.84 1012.57 1012.49 1012.58 1012.70 1013.16 1013.88 1014.89 1015.85 1016.94 1017.92 1018.11 1017.38 1016.85 1016.18 1014.26 1014.21 1014.07 1013.84 1013.66
1019.92 1020.23 1020.50 1020.81 1020.68 1020.59 1020.61 1020.31 1019.83 1019.01 1018.61 1019.15 1019.65 1019.93 1020.14 1020.32 1019.77 1019.31 1018.45 1017.36 1016.52 1015.81 1015.17 1014.13 1013.56 1013.40 1013.47 1013.07 1012.83 1012.82 1012.95 1013.12 1013.41 1013.87 1014.31 1015.72 1016.90 1017.76 1018.41 1017.93 1016.72 1013.73 1012.89 1012.81 1012.82 1012.64 1012.74
1019.78 1020.18 1020.49 1020.68 1020.67 1020.80 1020.84 1020.62 1020.23 1019.61 1019.24 1019.52 1019.94 1020.22 1020.58 1020.77 1020.39 1019.72 1018.87 1018.11 1016.97 1016.21 1015.50 1014.77 1014.14 1013.89 1013.56 1013.58 1014.02 1014.09 1014.18 1014.08 1013.94 1014.06 1014.45 1014.94 1016.26 1017.46 1017.96 1017.77 1015.32 1013.05 1012.47 1012.47 1012.50 1011.73 1011.45
1019.51 1020.01 1020.38 1020.60 1020.78 1020.87 1020.99 1020.82 1020.56 1020.05 1019.69 1019.94 1020.15 1020.04 1020.58 1020.86 1020.85 1020.18 1019.63 1018.94 1018.34 1017.33 1016.13 1015.20 1014.57 1014.15 1013.90 1014.39 1014.90 1015.29 1015.18 1014.74 1014.61 1014.42 1014.48 1014.88 1015.40 1016.72 1017.36 1017.00 1015.37 1013.07 1011.97 1011.65 1011.76 1011.53 1010.64
1019.16 1019.83 1020.15 1020.37 1020.58 1020.82 1021.01 1020.98 1020.74 1020.49 1020.10 1020.40 1020.65 1020.26 1020.52 1020.87 1020.53 1020.11 1019.70 1019.28 1018.76 1018.41 1017.95 1016.86 1016.01 1015.25 1014.73 1015.38 1015.81 1015.92 1015.57 1014.81 1014.86 1014.69 1014.76 1015.25 1015.61 1016.09 1016.43 1015.94 1014.27 1012.40 1011.72 1011.59 1011.86 1011.70 1010.72
1018.85 1019.39 1019.89 1020.18 1020.53 1020.83 1020.98 1020.96 1020.82 1020.56 1020.21 1020.65 1020.84 1020.46 1020.61 1020.66 1019.89 1019.40 1019.41 1019.21 1019.06 1018.77 1018.56 1017.77 1017.19 1016.60 1016.17 1016.22 1016.42 1016.05 1015.83 1014.88 1014.65 1014.42 1014.34 1014.69 1015.30 1015.59 1015.53 1015.30 1013.85 1011.80 1011.70 1011.65 1011.25 1010.93 1010.90
1018.62 1019.26 1019.82 1020.20 1020.46 1020.63 1020.77 1020.72 1020.71 1020.43 1020.22 1020.39 1020.79 1020.15 1020.17 1020.28 1019.94 1019.81 1019.07 1018.84 1018.88 1018.88 1018.80 1018.52 1018.29 1017.90 1017.30 1017.07 1016.82 1016.34 1015.77 1015.14 1014.63 1014.60 1014.09 1014.20 1013.80 1014.17 1014.06 1013.27 1012.06 1011.52 1011.18 1010.79 1010.86 1010.99 1011.06
Wind_Speed
13 15 16 17 19 19 20 20 20 21 20 21 20 21 23 25 21 12 8 6 3 3 1 2 4 2 3 3 8 8 14 16 12 19 18 8 9 6 6 6 8 2 12 15 9 7 11
13 14 15 16 18 18 20 20 19 19 20 20 20 21 22 23 16 10 7 7 6 6 4 2 1 4 1 7 6 4 10 13 13 18 17 9 8 7 5 6 11 8 2 7 8 8 15
12 13 15 17 18 18 19 19 19 19 19 19 19 20 18 21 15 8 7 6 6 4 2 2 2 2 3 11 3 8 9 8 12 17 11 10 5 6 7 6 4 4 9 4 12 7 7
11 13 14 16 17 18 18 19 19 18 19 19 19 18 17 16 14 10 9 6 5 4 3 3 2 1 6 4 8 8 5 6 5 7 6 10 7 6 3 2 5 5 6 5 5 8 6
10 12 13 15 16 18 18 18 19 19 18 19 19 16 17 12 13 11 10 10 6 4 3 3 3 2 7 8 1 3 2 2 5 3 4 7 3 4 1 7 6 3 7 7 8 11 6
9 11 12 14 15 17 18 18 19 19 20 17 18 17 15 14 10 13 15 12 7 5 2 3 2 2 2 4 3 5 4 6 3 6 8 8 5 5 3 6 15 13 12 11 12 9 6
8 10 12 14 15 17 18 20 20 20 19 19 18 16 16 14 11 11 9 3 5 5 2 2 2 4 4 5 3 8 2 3 3 13 7 13 7 14 11 4 4 9 7 10 4 5 5
7 9 11 13 15 16 19 20 20 20 20 20 19 16 17 14 12 11 2 4 2 4 4 4 5 2 4 4 3 5 2 3 3 9 13 7 9 5 8 4 4 10 6 6 1 5 5
6 8 10 13 15 16 18 19 21 22 19 19 19 17 17 14 13 4 3 1 0 2 0 4 1 3 3 6 5 3 3 1 5 9 13 8 8 9 9 4 4 1 6 4 4 1 1
6 8 10 12 15 16 18 20 21 22 21 21 20 19 15 13 1 3 1 4 3 1 4 6 7 4 0 1 4 3 9 2 1 16 11 7 4 9 6 4 5 1 6 7 6 6 7
6 7 9 11 15 16 18 20 21 22 22 21 21 19 12 7 1 2 5 3 3 3 5 8 5 6 1 3 3 5 4 5 9 7 5 2 4 9 5 5 5 6 5 7 4 6 5
5 7 9 11 14 16 19 21 22 23 22 22 22 15 8 2 1 2 2 2 4 6 6 5 6 8 2 2 3 3 2 3 2 12 11 6 2 5 2 3 3 1 6 8 6 4 1
4 7 9 11 14 16 19 21 23 24 25 24 21 9 1 2 2 3 2 4 6 7 3 5 4 2 8 9 3 2 2 4 5 7 4 5 4 1 2 5 3 4 6 3 1 1 5
4 6 8 11 13 16 19 21 24 25 26 25 19 5 2 2 2 1 2 4 10 3 3 2 3 5 3 2 7 5 3 4 5 7 5 4 3 1 4 3 4 4 2 6 6 4 4
3 6 8 11 13 16 18 21 24 24 23 22 10 2 1 2 3 2 4 7 7 6 4 2 1 2 3 2 2 3 3 2 4 3 6 5 0 1 1 2 0 5 5 3 5 1 3
2 5 8 11 13 16 19 21 23 25 24 19 1 2 1 2 3 4 4 2 2 4 3 3 1 2 4 4 3 2 1 2 3 4 4 6 6 2 4 1 4 3 3 2 3 3 4
1 3 7 10 13 16 19 21 23 24 25 14 3 3 1 3 2 3 3 3 3 4 4 1 2 1 3 6 7 5 6 4 4 5 4 6 4 4 4 5 8 4 3 2 4 4 4
2 3 6 10 12 15 18 20 23 25 22 8 2 3 3 3 1 0 2 5 2 2 0 3 2 2 1 3 3 3 5 2 1 7 6 6 5 4 3 4 4 1 5 5 4 5 1
3 2 6 9 11 14 16 19 22 23 18 0 2 1 3 2 3 3 4 1 0 1 1 2 3 2 1 2 4 3 4 2 2 3 6 5 1 4 2 3 1 5 4 3 4 3 6
4 3 5 7 11 13 16 20 23 25 20 4 3 3 5 3 0 3 4 3 2 1 2 2 2 3 2 2 4 3 2 2 2 3 4 5 2 5 7 5 5 6 9 7 6 3 4
6 3 2 6 10 12 16 18 22 25 16 4 4 2 2 3 2 3 3 5 1 1 2 1 3 2 2 2 2 3 2 2 3 2 3 4 4 2 3 3 3 3 7 12 10 11 9
8 4 2 5 9 12 14 16 19 24 10 6 4 3 4 3 5 4 4 4 2 5 3 3 0 7 4 3 5 6 5 4 4 1 2 2 1 2 2 1 0 2 6 8 14 9 9
9 6 3 4 6 10 12 14 17 20 9 4 2 2 3 5 6 2 4 4 6 7 1 3 3 2 1 1 1 2 3 4 5 8 4 3 5 3 4 3 3 7 13 14 7 8 11
11 8 5 3 7 9 11 12 14 16 9 3 2 3 3 1 3 4 6 6 8 6 3 5 3 1 1 6 2 2 4 4 6 3 5 6 5 3 2 3 2 8 2 6 15 8 10
12 9 6 3 6 7 9 11 12 13 10 4 1 3 2 2 0 4 10 4 6 7 2 4 1 1 3 3 4 4 5 4 2 4 4 4 5 2 4 3 8 4 3 5 7 8 15
13 10 8 4 5 6 7 9 10 11 11 4 2 2 4 4 2 4 4 3 4 4 5 2 3 4 4 3 2 4 5 5 3 1 3 4 4 5 2 1 5 4 3 2 3 6 2
14 12 9 6 4 3 5 7 12 8 10 4 2 2 4 2 3 2 1 2 3 3 4 5 7 6 3 2 2 3 4 4 4 5 5 4 2 5 5 2 8 7 5 1 2 5 4
15 13 10 7 5 3 3 6 8 8 7 4 3 1 3 1 5 4 3 3 2 1 2 5 3 1 2 3 3 3 3 5 2 4 6 6 6 4 4 3 9 4 2 4 5 2 1
15 12 10 7 7 4 1 5 7 8 6 5 1 2 2 3 5 1 7 9 8 9 1 2 2 3 3 2 1 1 3 0 3 3 1 3 7 6 8 7 5 5 4 4 4 3 3
Wind_Direction
355 358 354 359 350 351 351 355 353 347 342 343 345 348 349 342 349 353 13 34 27 62 101 23 286 214 140 210 247 293 328 303 241 208 207 170 170 163 172 162 173 128 173 201 143 151 175
355 353 353 355 354 350 352 353 358 347 344 343 349 352 354 358 9 36 33 39 36 39 32 15 351 131 124 254 257 286 352 310 186 192 195 189 183 195 130 154 168 163 155 127 112 192 185
352 352 351 354 351 353 352 354 356 346 349 344 351 355 2 11 19 43 37 27 27 21 44 42 110 164 186 232 199 16 329 311 184 192 194 185 193 182 136 132 189 160 172 86 182 187 190
349 350 349 348 353 351 352 353 349 353 346 346 351 356 1 8 23 17 2 1 346 313 279 299 218 140 254 254 244 280 279 8 359 175 228 177 220 195 156 145 77 120 116 144 199 172 207
346 348 347 350 349 350 353 350 351 349 351 346 348 354 348 356 356 348 333 324 317 7 207 157 117 140 272 294 134 96 263 36 352 184 212 241 194 181 166 118 99 217 160 178 178 198 155
341 345 344 348 347 350 348 352 349 349 347 349 348 346 345 345 350 334 328 313 295 3 11 196 187 306 299 303 341 109 18 101 278 154 220 184 181 150 139 162 179 186 179 180 185 187 180
334 344 342 342 345 349 347 349 347 344 348 345 348 342 336 333 338 337 340 18 26 351 41 283 227 226 228 306 234 72 59 118 196 187 170 173 156 192 183 110 172 124 120 180 210 174 147
328 341 337 339 345 346 347 348 345 343 350 344 343 342 326 325 330 338 38 86 117 197 329 328 260 65 41 314 101 58 244 40 218 125 126 147 191 152 127 153 92 155 134 184 26 230 171
324 336 336 343 342 344 346 345 344 344 346 343 338 336 325 323 324 45 57 133 113 97 331 316 330 31 352 341 16 32 38 285 304 124 178 137 138 137 165 143 128 74 179 165 153 77 83
318 334 338 343 340 342 344 346 343 343 344 342 337 330 324 319 349 143 95 272 322 92 79 5 326 91 161 152 104 152 204 244 156 160 139 87 145 143 157 148 130 132 198 174 179 148 200
314 332 340 342 339 341 344 345 344 341 343 341 336 324 316 300 278 124 176 216 302 358 40 12 345 297 218 56 190 175 235 161 135 113 115 78 101 153 136 152 157 219 171 159 136 131 130
313 328 339 341 338 344 344 345 345 340 343 339 338 327 319 336 182 216 163 34 74 47 31 357 315 311 27 87 76 0 34 48 104 66 56 59 22 54 62 55 101 134 82 45 53 73 262
313 324 341 341 341 345 344 345 343 343 343 339 339 329 215 297 258 139 111 61 38 67 238 357 22 168 13 5 359 78 67 96 118 107 75 41 3 335 8 107 17 70 85 38 73 218 221
300 326 342 343 344 344 344 346 345 347 341 339 337 107 255 253 137 69 84 51 71 264 289 257 222 113 59 7 7 5 108 97 49 94 108 142 172 212 353 53 158 155 167 152 186 203 228
286 330 341 347 346 345 346 349 346 346 340 341 342 23 35 256 156 45 73 53 175 207 197 227 225 221 120 97 109 9 4 58 133 164 110 133 318 133 220 116 73 154 224 176 109 37 69
268 339 343 349 346 347 349 349 348 347 343 347 66 40 294 102 102 59 73 140 196 181 253 255 307 153 119 147 132 173 209 247 169 177 134 172 115 235 151 146 243 242 190 121 356 143 239
232 350 346 352 351 352 348 348 350 351 349 355 39 55 310 103 39 35 101 194 302 216 233 273 321 71 143 146 164 185 187 180 191 167 166 152 113 150 153 214 182 164 199 157 129 151 182
197 2 356 0 354 351 349 348 349 354 351 42 13 54 332 42 353 25 133 195 171 269 234 297 278 298 303 100 98 111 156 167 221 153 168 197 123 145 183 263 234 240 215 177 141 244 209
165 19 13 8 356 358 352 350 349 351 353 28 70 252 353 32 79 343 298 230 252 72 225 319 288 295 335 103 100 107 131 126 37 122 162 177 122 91 71 357 280 223 217 170 114 74 206
155 69 22 4 6 1 359 353 350 348 350 104 72 39 333 36 281 332 357 223 225 176 281 316 290 335 344 41 45 139 113 38 34 98 86 84 125 161 184 201 144 198 194 191 146 171 201
146 120 27 15 14 6 5 357 354 351 358 85 33 29 63 323 341 341 311 308 72 232 180 35 314 276 304 239 102 120 110 40 13 69 77 108 171 122 255 136 137 215 191 181 193 212 201
160 154 79 35 19 16 8 2 2 356 12 76 96 44 348 287 291 291 359 343 71 336 44 335 297 327 266 249 203 197 135 178 195 115 99 29 159 94 304 254 65 292 247 221 222 216 241
165 166 117 55 27 18 6 8 9 5 32 86 339 14 103 305 328 295 24 346 358 336 210 87 338 340 301 102 301 356 193 176 160 154 149 112 127 89 265 17 2 299 227 210 211 204 214
174 170 138 90 41 27 13 13 9 19 47 110 189 117 87 28 31 0 355 333 332 325 285 312 349 270 315 309 301 43 42 79 134 151 139 131 115 108 198 29 297 239 211 208 219 231 211
177 170 152 111 50 34 19 10 3 17 41 77 14 91 113 100 308 331 335 317 315 301 241 253 306 307 299 9 53 31 351 13 227 176 160 138 125 117 147 195 285 277 197 167 172 265 215
174 171 164 130 68 40 20 8 7 16 25 58 349 102 88 112 180 273 316 313 330 326 318 337 350 322 56 84 114 174 206 219 218 242 116 150 108 126 160 163 245 253 334 207 146 286 311
172 171 169 160 114 61 27 9 17 17 13 58 320 70 81 71 269 56 243 243 297 344 299 294 338 353 42 98 132 179 244 194 179 189 176 132 145 173 231 242 281 254 251 153 99 252 330
169 171 175 175 158 115 45 13 11 16 23 67 280 320 116 118 257 219 237 218 324 211 235 346 293 186 346 145 154 220 203 235 152 202 176 159 171 196 185 188 269 211 78 174 228 343 32
170 173 175 181 173 160 88 12 13 18 34 93 296 276 126 207 263 268 250 245 231 238 162 309 329 303 356 245 111 285 256 224 175 241 67 190 182 186 180 212 237 224 215 241 177 182 192